TimePST,TemperatureF,Dew PointF,Humidity,Sea Level PressureIn,VisibilityMPH,Wind Direction,Wind SpeedMPH,Gust SpeedMPH,PrecipitationIn,Events,Conditions,WindDirDegrees,DateUTC
12:03 AM,30.2,30.2,100,29.87,4.0,Calm,Calm,-,N/A,,Mostly Cloudy,0,2012-11-10 08:03:00
12:10 AM,32.0,30.2,93,29.86,2.0,Calm,Calm,-,N/A,,Mostly Cloudy,0,2012-11-10 08:10:00
12:13 AM,33.8,30.2,87,29.86,3.0,Calm,Calm,-,N/A,,Scattered Clouds,0,2012-11-10 08:13:00
12:47 AM,32.0,32.0,100,29.87,1.8,Calm,Calm,-,N/A,,Mostly Cloudy,0,2012-11-10 08:47:00
12:53 AM,30.9,30.9,100,29.88,1.0,Calm,Calm,-,N/A,,Mostly Cloudy,0,2012-11-10 08:53:00
12:58 AM,30.2,30.2,100,29.87,2.0,Calm,Calm,-,N/A,,Overcast,0,2012-11-10 08:58:00
1:05 AM,30.2,30.2,100,29.87,4.0,Calm,Calm,-,N/A,,Overcast,0,2012-11-10 09:05:00
1:53 AM,32.0,30.2,93,29.89,6.0,Calm,Calm,-,N/A,Snow,Light Snow,0,2012-11-10 09:53:00
2:53 AM,32.0,30.9,96,29.91,7.0,WNW,4.6,-,0.00,,Overcast,300,2012-11-10 10:53:00
3:30 AM,32.0,32.0,100,29.91,5.0,NNW,6.9,-,N/A,,Overcast,330,2012-11-10 11:30:00
3:39 AM,32.0,32.0,100,29.91,4.0,NW,5.8,-,N/A,,Overcast,320,2012-11-10 11:39:00
3:53 AM,32.0,32.0,100,29.91,3.0,NW,3.5,-,N/A,,Overcast,320,2012-11-10 11:53:00
4:13 AM,32.0,32.0,100,29.92,2.5,West,6.9,-,N/A,,Overcast,280,2012-11-10 12:13:00
4:49 AM,30.2,30.2,100,29.93,2.5,WNW,8.1,-,0.00,,Overcast,290,2012-11-10 12:49:00
4:53 AM,30.9,30.9,100,29.95,2.5,WNW,9.2,-,0.00,,Overcast,290,2012-11-10 12:53:00
5:05 AM,30.2,30.2,100,29.93,1.2,WNW,6.9,-,N/A,,Overcast,300,2012-11-10 13:05:00
5:27 AM,30.2,30.2,100,29.94,0.5,NW,4.6,-,N/A,Fog,Light Freezing Fog,310,2012-11-10 13:27:00
5:34 AM,30.2,30.2,100,29.94,0.2,WNW,6.9,-,N/A,Fog,Light Freezing Fog,300,2012-11-10 13:34:00
5:53 AM,30.9,30.9,100,29.96,0.2,WNW,5.8,-,N/A,Fog,Light Freezing Fog,290,2012-11-10 13:53:00
6:32 AM,30.2,30.2,100,29.95,0.5,WNW,6.9,-,N/A,Fog,Light Freezing Fog,300,2012-11-10 14:32:00
6:45 AM,30.2,30.2,100,29.96,0.2,WNW,5.8,-,N/A,Fog,Light Freezing Fog,300,2012-11-10 14:45:00
6:53 AM,30.9,30.9,100,29.98,0.2,WNW,3.5,-,N/A,Fog,Light Freezing Fog,300,2012-11-10 14:53:00
7:53 AM,30.9,30.9,100,30.00,0.2,WNW,6.9,-,N/A,Fog,Light Freezing Fog,300,2012-11-10 15:53:00
8:34 AM,32.0,32.0,100,29.99,1.2,WNW,8.1,-,N/A,,Overcast,300,2012-11-10 16:34:00
8:39 AM,30.2,30.2,100,29.99,2.0,WNW,5.8,-,N/A,,Overcast,300,2012-11-10 16:39:00
8:50 AM,32.0,32.0,100,29.99,3.0,WNW,4.6,-,N/A,,Overcast,300,2012-11-10 16:50:00
8:53 AM,32.0,32.0,100,30.02,3.0,WNW,3.5,-,N/A,,Overcast,290,2012-11-10 16:53:00
9:21 AM,32.0,30.2,93,30.00,4.0,Calm,Calm,-,N/A,,Overcast,0,2012-11-10 17:21:00
9:53 AM,33.1,30.0,89,30.04,6.0,West,5.8,-,N/A,,Overcast,280,2012-11-10 17:53:00
10:15 AM,33.8,30.2,87,30.03,9.0,NW,5.8,-,N/A,,Overcast,320,2012-11-10 18:15:00
10:19 AM,33.8,30.2,87,30.03,9.0,NW,5.8,-,N/A,,Overcast,320,2012-11-10 18:19:00
10:29 AM,35.6,30.2,81,30.03,9.0,NW,3.5,-,N/A,,Overcast,320,2012-11-10 18:29:00
10:53 AM,35.1,30.0,82,30.05,8.0,NNW,3.5,-,N/A,,Overcast,340,2012-11-10 18:53:00
11:53 AM,36.0,30.9,82,30.05,9.0,NNW,10.4,-,N/A,,Overcast,330,2012-11-10 19:53:00
12:03 PM,35.6,30.2,81,30.04,9.0,NW,9.2,-,N/A,,Overcast,310,2012-11-10 20:03:00
12:29 PM,35.6,30.2,81,30.04,9.0,NW,8.1,-,N/A,,Overcast,320,2012-11-10 20:29:00
12:53 PM,36.0,30.0,79,30.07,5.0,North,3.5,-,0.00,Snow,Light Snow,360,2012-11-10 20:53:00
1:12 PM,37.4,30.2,75,30.05,8.0,NNE,5.8,-,0.00,,Overcast,20,2012-11-10 21:12:00
1:53 PM,36.0,30.0,79,30.08,10.0,NNW,5.8,-,0.00,,Overcast,330,2012-11-10 21:53:00
2:37 PM,35.6,30.2,81,30.08,3.0,NNW,6.9,-,0.00,,Haze,330,2012-11-10 22:37:00
2:51 PM,33.8,30.2,87,30.08,2.0,NW,5.8,-,0.00,Snow,Light Snow,320,2012-11-10 22:51:00
2:53 PM,34.0,30.9,89,30.11,4.0,NW,4.6,-,0.00,Snow,Light Snow,310,2012-11-10 22:53:00
3:09 PM,35.6,32.0,87,30.09,6.0,NNW,3.5,-,0.00,,Overcast,330,2012-11-10 23:09:00
3:21 PM,33.8,32.0,93,30.09,5.0,NNW,3.5,-,0.00,,Overcast,340,2012-11-10 23:21:00
3:53 PM,34.0,32.0,92,30.13,7.0,NE,4.6,-,0.00,,Overcast,50,2012-11-10 23:53:00
4:53 PM,33.1,30.9,92,30.14,7.0,ENE,5.8,-,N/A,,Overcast,60,2012-11-11 00:53:00
5:13 PM,33.8,30.2,87,30.12,6.0,East,6.9,-,N/A,,Overcast,80,2012-11-11 01:13:00
5:22 PM,33.8,30.2,87,30.12,6.0,East,5.8,-,N/A,,Overcast,90,2012-11-11 01:22:00
5:53 PM,33.1,30.9,92,30.16,6.0,East,6.9,-,N/A,,Overcast,100,2012-11-11 01:53:00
6:14 PM,33.8,30.2,87,30.14,7.0,ESE,3.5,-,N/A,,Overcast,110,2012-11-11 02:14:00
6:26 PM,32.0,30.2,93,30.14,7.0,ESE,3.5,-,N/A,,Overcast,110,2012-11-11 02:26:00
6:53 PM,32.0,30.9,96,30.17,9.0,ESE,4.6,-,N/A,,Overcast,120,2012-11-11 02:53:00
7:53 PM,32.0,30.2,93,30.15,10.0,Calm,Calm,-,N/A,,Overcast,0,2012-11-11 03:53:00
8:53 PM,32.0,30.2,93,30.16,8.0,SSE,4.6,-,N/A,,Overcast,150,2012-11-11 04:53:00
9:53 PM,30.0,30.0,100,30.20,5.0,Calm,Calm,-,N/A,,Overcast,0,2012-11-11 05:53:00
10:37 PM,30.2,30.2,100,30.18,2.0,SSE,3.5,-,N/A,,Overcast,150,2012-11-11 06:37:00
10:40 PM,30.2,30.2,100,30.18,1.2,SSE,3.5,-,N/A,,Mostly Cloudy,150,2012-11-11 06:40:00
10:45 PM,30.2,30.2,100,30.18,0.2,SSE,3.5,-,N/A,Fog,Light Freezing Fog,160,2012-11-11 06:45:00
10:53 PM,30.0,30.0,100,30.21,0.2,SSE,4.6,-,N/A,Fog,Light Freezing Fog,160,2012-11-11 06:53:00
11:12 PM,28.4,28.4,100,30.19,0.8,SSE,4.6,-,N/A,,Partly Cloudy,150,2012-11-11 07:12:00
11:16 PM,28.4,28.4,100,30.19,1.5,SSE,4.6,-,N/A,,Partly Cloudy,150,2012-11-11 07:16:00
11:28 PM,28.4,28.4,100,30.19,2.5,South,3.5,-,N/A,,Scattered Clouds,170,2012-11-11 07:28:00
11:35 PM,28.4,28.4,100,30.20,3.0,South,4.6,-,N/A,,Mostly Cloudy,180,2012-11-11 07:35:00
11:53 PM,30.0,30.0,100,30.22,4.0,SSE,3.5,-,N/A,,Overcast,160,2012-11-11 07:53:00